Theta_e
328 327 331 330 333 348 348 346 343 339 338 341 345 344 343 343 340 338 339 337 335 338 334 338 337 344 341 344 344 344 341 339
326 326 328 333 334 344 349 346 342 339 338 340 342 340 340 339 340 337 337 335 333 329 331 331 332 337 336 334 337 339 337 338
326 329 329 331 332 335 338 345 343 341 338 342 342 340 339 338 338 338 337 335 331 330 329 330 331 335 336 332 333 336 336 337
320 325 327 327 327 329 341 346 346 344 343 344 343 343 341 340 339 338 337 336 334 331 330 331 331 334 335 332 333 335 336 337
320 321 323 326 327 327 337 347 351 351 347 347 348 343 344 343 341 340 338 336 335 333 331 331 332 333 334 333 332 335 335 339
320 322 321 324 326 325 330 349 353 350 349 349 347 348 347 345 345 343 341 339 336 335 334 332 334 334 334 333 332 333 336 335
317 321 323 324 325 324 324 329 350 350 350 350 349 347 345 345 343 344 345 341 340 338 335 336 334 334 334 334 332 331 330 330
318 319 324 325 328 326 332 332 340 348 351 348 347 347 346 344 343 341 343 345 343 338 339 336 336 335 332 333 330 332 330 333
317 318 320 324 330 330 332 332 334 339 338 343 340 338 336 336 338 340 340 348 345 341 338 339 340 335 335 332 330 328 330 332
315 317 318 322 328 328 330 330 330 330 330 332 331 330 330 331 333 339 341 346 347 343 341 340 338 336 333 331 331 327 330 330
314 315 319 320 326 328 332 331 331 329 330 332 331 331 330 331 334 336 342 347 347 345 343 340 338 336 334 332 331 328 326 328
312 313 314 317 324 325 328 330 331 333 333 330 330 331 329 328 326 340 342 345 345 344 344 341 339 337 333 333 334 329 327 324
309 311 312 315 321 322 327 330 330 329 331 332 331 330 330 330 333 339 340 340 343 343 342 340 338 338 336 335 333 330 329 329
308 309 313 313 315 316 317 322 329 329 329 334 331 329 331 332 337 337 337 338 338 340 342 342 340 339 338 336 336 332 331 331
309 308 309 311 312 313 316 319 319 327 332 334 333 331 332 330 338 338 336 335 334 335 338 339 339 339 339 336 333 333 331 329
306 310 311 311 312 312 314 319 327 332 332 336 336 333 332 337 341 338 336 336 336 337 337 340 340 340 340 336 334 333 332 328
306 308 311 311 311 314 317 319 325 331 333 334 335 337 335 340 338 337 337 336 338 337 340 340 340 339 337 335 334 330 331 328
307 310 311 313 313 315 317 320 324 329 334 337 340 341 343 340 338 336 336 335 337 337 339 338 338 337 337 334 330 329 328 326
309 321 321 317 324 330 332 336 336 337 339 339 341 341 343 340 337 337 337 337 337 338 338 337 337 335 333 329 328 327 327 326
317 324 325 326 334 335 336 337 337 338 340 341 340 342 342 341 339 340 340 338 339 339 338 337 335 334 332 327 326 328 327 325
Wind_Speed
22 19 7 10 13 8 13 14 14 16 11 8 6 6 6 6 8 8 7 6 6 7 5 7 6 14 6 9 7 5 5 4
20 11 12 12 13 8 13 14 15 13 9 9 8 8 8 7 9 9 7 6 7 5 5 6 6 6 6 5 4 5 6 7
10 9 11 17 21 25 14 13 14 12 10 8 9 9 9 9 8 10 10 8 8 8 5 5 7 6 7 6 6 8 8 10
2 12 10 12 12 11 10 11 11 12 11 12 11 9 10 9 9 10 14 10 9 9 9 8 7 9 8 8 8 9 9 8
13 10 10 12 8 8 9 13 14 11 12 8 9 9 8 10 10 12 15 13 11 12 9 10 7 9 10 9 9 8 6 9
12 11 9 10 8 10 11 15 16 17 12 8 6 6 6 7 8 9 14 15 14 12 9 10 7 6 9 8 9 8 9 9
7 11 13 10 11 11 10 10 16 15 11 7 6 7 6 5 5 7 13 14 15 13 10 8 11 7 8 8 9 7 5 4
8 9 10 10 11 10 10 9 10 10 7 5 4 4 5 4 6 6 8 12 16 14 9 9 9 10 6 7 5 5 4 4
24 15 10 8 6 10 11 11 10 7 4 5 3 5 4 4 5 8 9 11 14 14 10 8 8 10 12 7 5 6 4 4
22 19 15 9 10 10 10 11 10 7 5 4 5 5 4 4 6 8 12 9 13 13 12 9 10 6 6 7 6 4 4 5
18 17 9 11 10 12 12 12 12 8 9 3 2 2 1 2 3 6 9 9 12 13 11 9 6 6 5 5 6 8 4 3
18 17 14 9 10 8 8 10 10 9 10 6 8 8 7 5 4 4 5 9 11 11 11 10 8 5 6 6 5 5 5 5
10 10 10 11 9 10 10 11 13 12 13 11 9 6 5 4 3 7 5 6 8 8 9 7 6 4 5 7 6 6 4 4
12 12 11 9 8 9 9 11 13 14 12 12 12 10 8 4 3 5 4 4 5 7 8 6 6 5 6 5 6 7 6 4
15 15 12 14 11 11 8 11 11 11 12 13 12 12 9 9 7 7 8 4 3 5 6 6 4 5 5 6 6 5 5 4
10 18 19 17 17 12 10 9 9 10 12 11 10 9 5 5 8 6 6 5 6 7 6 6 6 5 4 5 4 5 5 5
14 9 13 12 10 14 17 11 10 10 10 8 8 8 7 6 9 8 6 6 6 7 7 6 6 5 6 6 5 5 5 5
14 8 8 7 9 8 10 11 11 10 9 8 8 8 9 11 10 9 8 6 7 7 7 7 7 7 7 7 4 5 6 4
17 7 6 9 7 9 9 10 12 9 8 7 8 7 12 10 8 7 7 6 7 7 7 7 7 7 7 6 6 6 7 6
19 12 6 8 8 9 12 10 10 9 8 7 8 11 10 10 9 7 8 8 8 9 8 8 8 8 7 7 6 5 7 7
Wind_Direction
171 229 112 46 342 149 161 161 166 166 181 169 179 187 189 194 195 185 185 187 201 199 197 204 200 207 198 211 214 207 214 200
179 195 101 84 71 305 163 167 170 181 171 176 176 184 190 195 199 184 182 193 200 200 197 195 191 195 185 194 190 200 215 215
159 144 153 160 171 200 198 169 171 170 188 170 182 189 192 197 190 193 191 195 195 199 196 186 189 177 186 199 187 203 215 227
193 144 189 168 198 184 159 159 165 180 188 181 182 186 191 187 195 193 195 200 198 198 202 201 185 185 186 197 198 204 214 213
195 208 176 179 194 163 162 166 175 181 198 185 178 183 191 188 199 192 193 200 198 199 199 206 190 188 187 195 208 210 201 211
249 232 204 197 176 175 170 177 179 188 192 193 191 186 184 191 197 191 193 201 201 197 199 201 192 174 193 191 203 210 216 223
242 260 236 222 193 186 194 170 175 180 183 175 190 190 202 213 191 190 198 199 201 198 202 192 192 185 190 187 205 201 205 191
266 259 233 227 207 197 165 161 162 169 161 163 200 186 216 208 214 210 189 202 200 196 194 188 179 202 194 192 175 191 181 182
267 270 268 273 220 162 163 157 166 147 139 167 194 206 203 206 211 226 216 193 196 192 197 179 173 193 206 182 164 181 208 164
246 256 255 234 187 181 168 173 173 178 160 179 161 174 204 187 209 225 226 182 184 189 187 178 185 175 178 177 165 156 182 166
228 243 241 252 189 185 182 188 187 188 192 148 134 66 7 237 242 234 225 178 171 181 181 181 169 174 179 176 169 170 158 193
233 229 239 213 207 204 183 182 182 194 185 179 181 205 211 226 214 212 202 163 167 161 166 166 182 173 171 177 168 154 134 163
222 222 227 232 195 190 188 189 195 199 200 195 190 185 195 208 195 193 168 150 152 146 153 156 161 165 186 173 157 153 151 145
228 229 223 233 208 199 201 192 202 202 196 192 186 180 194 192 192 162 157 133 135 144 146 157 164 169 183 165 163 156 165 150
254 245 229 238 235 232 212 198 208 193 192 192 194 190 179 194 181 159 153 139 136 154 144 140 144 157 164 151 144 148 145 152
253 249 230 229 228 230 220 209 208 186 186 182 176 171 169 174 172 154 149 140 141 154 141 139 158 160 163 141 129 143 158 167
266 259 213 208 202 215 212 183 184 170 168 160 163 160 169 149 136 130 138 135 147 152 147 150 158 162 143 135 135 161 175 185
266 239 243 226 214 200 183 171 163 163 156 158 158 156 143 139 140 144 151 154 152 149 147 156 147 147 137 135 164 182 160 162
282 223 274 244 189 162 148 134 124 127 131 137 147 136 141 140 139 141 150 141 135 136 138 140 142 131 143 145 168 163 163 154
308 286 281 193 147 128 120 119 121 127 130 117 117 129 128 132 139 145 142 127 129 134 139 134 133 136 146 161 168 164 158 169